SCP
0 0 0 0 0 -0 -0 -0 -0 -0 -0 -0 -0 -0 -0 -0 -0 -0 -0 -0 -0 -0 0 -0 -0 -0 -0 -0 -0 -0 -0 -0 -0 -0 -0 -0 -0 0 0 0 0 0 -0
0 0 0 0 -0 -0 -0 -0 -0 -0 0 -0 -0 -0 -0 -0 -0 -0 -0 -0 -0 -0 -0 -0 -0 -0 -0 -0 -0 -0 -0 -0 -0 -0 -0 -0 0 0 0 0 0 0 -0
0 0 -0 0 -0 -0 0 -0 -0 0 0 -0 -0 -0 -0 -0 -0 -0 -0 -0 -0 -0 -0 -0 -0 -0 -0 -0 -0 -0 -0 -0 -0 -0 -0 0 0 0 0 0 0 -0 -0
0 0 0 0 -0 0 0 0 -0 -0 -0 -0 -0 -0 -0 -0 -0 -0 -0 -0 -0 -0 -0 -0 -0 -0 -0 -0 -0 -0 -0 0 0 -0 0 0 0 0 0 0 0 0 0
0 0 0 0 -0 -0 -0 0 -0 -0 -0 -0 -0 -0 -0 -0 -0 -0 -0 -0 -0 -0 0 0 0 0 0 0 0 0 0 0 0 0 0 0 0 0 0 0 0 0 0
0 0 0 0 -0 -0 -0 -0 -0 -0 -0 -0 -0 -0 -0 -0 -0 -0 -0 0 0 0 0 0 0 0 0 0 0 0 0 0 -0 0 0 0 0 0 0 0 0 0 0
0 0 -0 0 -0 -0 -0 -0 -0 -0 -0 0 0 0 -0 -0 -0 0 0 0 0 0 0 0 0 0 0 0 0 0 0 0 0 0 0 0 0 0 0 0 0 0 0
-0 -0 0 0 0 -0 -0 -0 -0 -0 -0 -0 -0 0 0 0 -0 0 0 0 0 0 0 0 0 0 0 0 0 0 0 0 0 0 0 0 0 0 0 0 0 0 0
-0 -0 -0 -0 -0 0 0 -0 -0 -0 -0 -0 -0 0 0 0 0 0 0 0 0 0 0 0 0 0 0 0 0 0 0 0 0 0 0 0 0 0 0 0 0 0 0
-0 -0 -0 -0 -0 -0 0 0 0 0 0 0 0 0 0 0 0 0 0 0 0 0 0 0 0 0 0 0 0 0 0 0 0 0 0 0 0 0 0 0 0 0 0
-0 -0 -0 -0 -0 -0 0 0 0 0 0 0 0 0 0 0 0 0 0 0 0 0 0 0 0 0 0 0 0 0 0 0 0 0 0 0 0 0 0 0 0 0 0
-0 -0 -0 -0 -0 -0 0 0 0 0 0 0 0 0 0 0 0 0 0 0 0 0 0 0 0 0 0 0 0 0 0 0 0 0 0 0 0 0 0 0 0 0 0
0 0 0 0 -0 -0 0 0 0 0 0 0 0 0 0 0 0 0 0 0 0 0 0 0 0 0 0 0 0 0 0 0 0 0 0 0 0 0 0 0 0 0 0
0 0 0 0 0 0 0 0 0 0 0 0 0 0 0 0 0 0 0 0 0 0 0 0 0 0 0 0 0 0 0 0 0 0 0 0 0 0 0 0 0 0 0
0 0 0 0 0 0 0 0 0 0 0 0 0 0 0 0 0 0 0 0 0 0 0 0 0 0 0 0 0 0 0 0 0 0 0 0 0 0 0 0 0 0 0
0 0 0 0 0 0 0 0 0 0 0 0 0 0 0 0 0 0 0 0 0 0 0 0 0 0 0 0 0 0 0 0 0 0 0 0 0 0 0 0 0 0 0
0 0 0 0 0 0 0 0 0 0 0 0 0 0 0 0 0 0 0 0 0 0 0 0 0 0 0 0 0 0 0 0 0 0 0 0 0 0 0 0 0 0 0
0 0 0 0 0 0 0 0 0 0 0 0 0 0 0 0 0 0 0 0 0 0 0 0 0 0 0 0 0 0 0 0 0 0 0 0 0 0 0 0 0 0 0
0 0 0 0 0 0 0 0 0 0 0 0 0 0 0 0 0 0 0 0 0 0 0 0 0 0 0 0 0 0 0 0 0 0 0 0 0 0 0 0 0 0 0
0 0 0 0 0 0 0 0 0 0 0 0 0 0 0 0 0 0 0 0 0 0 0 0 0 0 0 0 0 0 0 0 0 0 0 0 0 0 0 0 0 0 0
0 0 0 0 0 0 0 0 0 0 0 0 0 0 0 0 0 0 0 0 0 0 0 0 0 0 0 0 0 0 0 0 0 0 0 0 0 0 0 0 0 0 0
0 0 0 0 0 0 0 0 0 0 0 0 0 0 0 0 0 0 0 0 0 0 0 0 0 0 0 0 0 0 0 0 0 0 0 0 0 0 0 0 0 0 0
0 0 0 0 0 0 0 0 0 0 0 0 0 0 0 0 0 0 0 0 0 0 0 0 0 0 0 0 0 0 0 0 0 0 0 0 0 0 0 0 0 0 0
0 0 0 0 0 0 0 0 0 0 0 0 0 0 0 0 0 0 0 0 0 0 0 0 0 0 0 0 0 0 0 0 0 0 0 0 0 0 0 0 0 0 0
0 0 0 0 0 0 0 0 0 0 0 0 0 0 0 0 0 0 0 0 0 0 0 0 0 0 0 0 0 0 0 0 0 0 0 0 0 0 0 0 0 0 0
0 0 0 0 0 0 0 0 0 0 0 0 0 0 0 0 0 0 0 0 0 0 0 0 0 0 0 0 0 0 0 0 0 0 0 0 0 0 0 0 0 0 0
Wind_Speed_500mb
21 22 21 18 18 10 5 3 5 3 7 19 19 18 15 10 7 8 16 21 23 20 19 16 14 17 24 23 20 18 12 11 9 13 13 10 9 11 12 10 18 21 23
21 23 22 20 17 9 3 3 1 6 9 12 22 18 17 13 7 4 13 15 15 16 18 18 25 24 21 17 15 12 6 1 5 10 14 12 8 9 7 8 19 20 20
22 22 23 20 16 6 5 7 4 11 12 21 14 16 17 12 7 9 16 11 13 15 18 29 26 19 17 13 13 6 3 3 9 11 10 12 8 5 7 10 20 16 21
23 22 22 21 12 6 6 7 5 13 13 10 11 7 10 11 12 15 12 13 15 20 19 21 24 19 18 13 4 2 4 7 8 12 10 8 7 2 7 12 16 16 18
23 21 19 13 7 5 5 5 7 12 14 13 13 12 8 6 9 12 12 13 9 10 16 11 24 20 15 12 5 5 6 8 12 12 11 9 10 5 9 9 14 14 18
23 21 17 11 7 5 5 5 6 11 21 14 15 18 13 10 4 12 13 13 14 9 10 11 17 15 19 17 11 10 11 10 12 9 10 11 10 5 4 7 11 14 15
21 20 16 12 8 4 5 6 5 10 23 23 16 9 12 11 9 7 9 13 10 10 5 7 11 12 18 18 11 12 9 12 7 7 7 6 1 6 6 10 9 10 13
17 16 16 12 10 7 6 5 6 4 16 25 18 12 15 19 16 12 11 15 12 10 6 7 8 12 15 18 16 11 13 12 6 4 5 3 9 4 9 10 10 11 14
18 17 16 15 13 11 9 8 7 7 7 12 21 19 14 18 20 20 17 19 15 15 9 9 8 10 13 16 19 19 18 12 5 6 7 2 12 10 11 12 10 11 12
17 17 18 19 18 16 15 13 11 11 9 10 15 22 23 23 23 22 20 27 22 19 14 15 14 13 13 16 19 21 19 15 11 13 9 8 13 8 13 12 10 11 13
16 17 19 21 21 20 20 20 18 16 16 14 15 16 21 25 27 27 24 25 19 22 24 23 21 20 19 19 19 20 19 16 17 16 14 17 14 9 12 13 8 13 17
16 16 16 19 22 25 26 26 26 24 23 22 21 21 24 25 28 27 27 24 28 27 30 30 29 27 26 24 23 23 22 22 23 22 20 21 17 13 14 21 22 17 18
22 24 22 22 21 24 27 30 33 33 31 30 28 27 27 28 29 30 31 30 29 33 28 32 32 29 27 30 29 28 28 28 26 26 26 25 23 19 17 20 29 26 27
29 31 31 28 31 29 29 31 34 38 38 37 33 33 34 33 31 31 31 31 34 34 34 32 31 31 38 38 36 35 34 34 33 32 32 31 29 28 24 23 25 33 33
32 35 37 40 38 38 38 38 37 40 43 41 40 40 40 39 37 35 34 34 35 35 38 39 39 38 36 40 44 42 41 42 41 42 41 37 38 36 33 30 29 28 35
39 43 44 46 47 47 46 45 45 44 44 45 47 46 45 44 43 42 40 39 39 37 37 40 40 42 44 43 46 49 50 49 48 47 49 46 42 42 41 38 36 36 34
49 52 53 51 52 54 52 51 51 51 49 49 47 46 51 49 48 46 46 44 41 38 39 42 42 43 47 49 52 53 55 55 58 55 54 55 52 48 48 47 44 42 42
63 64 63 61 53 58 57 55 55 55 54 52 50 51 49 51 51 51 53 51 45 41 42 44 45 46 49 52 54 56 57 57 59 60 60 63 61 59 56 55 53 52 49
62 61 66 68 62 55 57 57 57 58 58 56 52 53 56 53 51 53 56 56 52 52 50 49 50 50 51 54 55 55 56 61 62 63 64 66 68 67 66 66 60 59 58
60 57 50 57 69 65 60 56 61 63 62 60 57 54 55 56 54 55 56 58 56 58 60 59 59 55 55 55 58 62 62 62 66 68 70 70 71 75 70 74 72 70 68
61 60 57 58 57 64 69 60 57 66 63 62 61 55 51 52 53 55 59 59 59 60 60 62 65 64 64 64 65 73 73 68 70 69 71 69 70 74 75 78 79 78 77
62 60 54 52 56 56 60 60 53 49 57 55 55 54 53 52 52 48 50 52 57 61 61 62 64 67 74 71 74 71 60 57 66 64 61 56 53 54 57 59 67 73 80
49 55 51 48 47 46 47 47 47 42 46 50 52 51 50 47 43 40 40 41 44 48 51 55 57 64 69 69 75 73 28 34 41 52 57 55 57 60 62 62 62 66 64
34 35 39 37 37 39 39 38 39 34 31 26 25 29 34 37 36 38 39 39 41 44 51 52 54 59 60 63 68 69 75 76 51 48 47 53 63 70 77 74 71 70 67
16 15 14 15 21 24 26 28 24 25 21 25 28 27 27 27 27 28 31 34 36 37 41 45 50 56 58 63 64 72 72 71 74 77 65 58 68 80 82 82 81 77 75
11 14 13 10 4 5 11 17 19 19 20 23 26 28 26 27 28 28 31 34 38 38 42 42 45 50 54 59 66 68 76 72 68 72 78 83 82 84 84 82 86 86 82
Wind_Direction_500mb
169 165 161 163 171 170 158 80 27 101 123 149 146 165 168 164 143 123 143 160 156 138 122 125 148 125 128 124 104 109 110 90 51 42 44 39 6 351 355 28 64 73 77
173 165 162 173 182 199 261 324 23 162 138 139 178 181 194 207 222 187 164 135 129 125 126 123 124 121 119 131 129 118 101 182 352 12 17 15 351 344 8 50 93 85 84
171 167 163 174 195 229 291 295 267 177 163 159 175 192 217 215 199 142 135 141 127 102 112 130 131 123 114 119 132 164 204 307 332 340 3 55 36 9 84 75 88 91 92
171 170 172 176 192 250 275 281 247 198 186 171 164 160 186 194 190 153 159 132 140 135 132 141 146 145 114 108 126 116 297 324 339 351 24 46 69 39 117 104 110 105 102
170 171 181 185 229 264 285 283 247 218 195 150 167 190 218 182 159 186 158 160 151 145 144 156 159 150 130 139 209 241 273 305 336 14 30 74 89 132 153 137 108 131 117
172 175 183 201 224 269 291 291 255 205 185 175 200 203 213 239 259 204 172 177 172 172 170 163 142 168 157 154 214 234 277 316 359 31 48 64 123 142 199 156 161 137 129
180 185 195 204 215 260 292 298 282 169 193 176 192 179 229 259 255 219 230 203 182 186 163 141 150 154 169 176 222 240 276 329 14 22 52 82 156 194 153 153 174 152 150
188 197 209 219 225 236 256 290 302 197 197 209 200 192 224 231 273 270 266 211 218 217 196 181 177 183 190 204 224 255 273 311 354 9 23 46 327 234 196 204 183 179 175
196 203 214 226 232 242 254 261 268 269 231 203 197 190 221 242 260 271 237 243 232 235 225 237 229 218 218 226 242 255 271 282 266 280 320 327 327 312 229 221 208 203 196
205 214 226 231 234 240 252 257 263 263 256 221 216 204 198 229 246 258 252 237 255 249 249 250 252 248 243 244 249 258 267 273 268 284 283 273 313 290 262 229 236 240 237
226 229 237 242 241 242 246 252 254 256 257 255 247 237 231 221 234 245 253 241 259 263 275 264 256 258 259 259 259 264 266 262 267 268 266 283 301 310 245 261 272 257 255
255 253 252 251 251 248 250 255 251 249 251 251 252 252 252 246 247 254 258 266 250 249 262 274 262 257 259 263 269 268 266 263 271 270 272 279 284 287 260 271 283 281 270
278 272 267 260 255 253 255 258 255 250 247 248 249 253 254 257 260 260 262 264 263 261 251 256 262 267 261 263 266 268 269 269 272 274 272 276 276 274 267 249 267 273 282
286 284 282 270 261 259 261 259 257 253 252 251 251 251 253 255 258 259 262 263 261 260 256 251 258 263 264 266 264 268 269 268 272 275 276 273 272 270 267 259 246 261 270
300 298 291 284 275 268 261 264 261 258 256 258 256 253 252 254 256 258 260 259 260 263 263 262 264 266 268 268 270 268 268 270 271 274 276 274 271 268 262 262 257 246 254
311 306 299 290 284 274 268 263 265 264 261 260 259 258 257 256 256 257 259 261 262 263 266 268 269 270 270 269 270 272 274 273 273 272 274 275 271 267 260 257 258 253 242
301 302 300 297 282 274 270 267 263 265 263 259 263 263 261 260 259 259 260 261 264 265 267 267 266 268 269 271 274 276 276 278 276 274 275 274 272 266 263 257 255 255 252
292 292 286 286 286 271 268 268 267 266 267 264 258 261 263 262 261 262 262 262 265 265 266 267 270 271 273 273 275 276 279 279 276 275 276 274 274 270 267 261 258 255 253
293 292 276 277 277 277 269 263 264 265 266 267 264 258 260 262 262 260 264 267 266 266 265 265 266 269 271 275 278 279 277 280 280 278 274 273 274 272 270 268 261 258 254
295 295 289 273 272 269 269 264 256 257 260 263 264 264 263 265 265 263 263 266 266 267 267 268 269 270 273 273 273 275 278 279 283 283 279 278 275 275 272 270 268 261 257
293 288 284 281 274 270 262 261 260 258 259 261 265 268 268 268 266 265 267 268 270 270 271 269 270 273 274 276 274 274 278 280 280 282 282 280 279 278 276 271 269 266 264
292 291 283 275 268 265 254 256 260 262 261 266 272 272 271 270 269 269 270 271 270 272 272 271 274 276 276 274 278 276 273 277 276 280 288 284 280 279 276 277 272 269 267
299 290 285 274 270 260 259 257 258 256 259 259 263 266 270 275 278 274 273 274 273 273 276 276 272 272 275 277 278 272 266 266 274 277 279 278 279 277 275 273 273 275 273
313 302 291 277 265 256 252 246 250 252 256 261 268 273 277 276 276 273 273 275 274 273 275 276 277 277 280 279 281 278 277 278 279 285 274 276 274 276 281 278 275 274 275
347 340 321 283 257 248 239 234 236 241 249 257 261 270 276 279 284 285 284 288 287 286 286 287 291 289 287 284 282 282 282 283 281 270 278 277 279 283 280 278 280 279 273
69 70 70 71 107 199 225 228 225 230 239 250 257 266 270 274 277 279 282 282 283 284 286 287 285 281 285 287 285 280 279 272 274 276 276 278 280 283 283 278 280 279 276
Wind_Speed_850mb
21 22 21 18 18 10 5 3 5 3 7 19 19 18 15 10 7 8 16 21 23 20 19 16 14 17 24 23 20 18 12 11 9 13 13 10 9 11 12 10 18 21 23
21 23 22 20 17 9 3 3 1 6 9 12 22 18 17 13 7 4 13 15 15 16 18 18 25 24 21 17 15 12 6 1 5 10 14 12 8 9 7 8 19 20 20
22 22 23 20 16 6 5 7 4 11 12 21 14 16 17 12 7 9 16 11 13 15 18 29 26 19 17 13 13 6 3 3 9 11 10 12 8 5 7 10 20 16 21
23 22 22 21 12 6 6 7 5 13 13 10 11 7 10 11 12 15 12 13 15 20 19 21 24 19 18 13 4 2 4 7 8 12 10 8 7 2 7 12 16 16 18
23 21 19 13 7 5 5 5 7 12 14 13 13 12 8 6 9 12 12 13 9 10 16 11 24 20 15 12 5 5 6 8 12 12 11 9 10 5 9 9 14 14 18
23 21 17 11 7 5 5 5 6 11 21 14 15 18 13 10 4 12 13 13 14 9 10 11 17 15 19 17 11 10 11 10 12 9 10 11 10 5 4 7 11 14 15
21 20 16 12 8 4 5 6 5 10 23 23 16 9 12 11 9 7 9 13 10 10 5 7 11 12 18 18 11 12 9 12 7 7 7 6 1 6 6 10 9 10 13
17 16 16 12 10 7 6 5 6 4 16 25 18 12 15 19 16 12 11 15 12 10 6 7 8 12 15 18 16 11 13 12 6 4 5 3 9 4 9 10 10 11 14
18 17 16 15 13 11 9 8 7 7 7 12 21 19 14 18 20 20 17 19 15 15 9 9 8 10 13 16 19 19 18 12 5 6 7 2 12 10 11 12 10 11 12
17 17 18 19 18 16 15 13 11 11 9 10 15 22 23 23 23 22 20 27 22 19 14 15 14 13 13 16 19 21 19 15 11 13 9 8 13 8 13 12 10 11 13
16 17 19 21 21 20 20 20 18 16 16 14 15 16 21 25 27 27 24 25 19 22 24 23 21 20 19 19 19 20 19 16 17 16 14 17 14 9 12 13 8 13 17
16 16 16 19 22 25 26 26 26 24 23 22 21 21 24 25 28 27 27 24 28 27 30 30 29 27 26 24 23 23 22 22 23 22 20 21 17 13 14 21 22 17 18
22 24 22 22 21 24 27 30 33 33 31 30 28 27 27 28 29 30 31 30 29 33 28 32 32 29 27 30 29 28 28 28 26 26 26 25 23 19 17 20 29 26 27
29 31 31 28 31 29 29 31 34 38 38 37 33 33 34 33 31 31 31 31 34 34 34 32 31 31 38 38 36 35 34 34 33 32 32 31 29 28 24 23 25 33 33
32 35 37 40 38 38 38 38 37 40 43 41 40 40 40 39 37 35 34 34 35 35 38 39 39 38 36 40 44 42 41 42 41 42 41 37 38 36 33 30 29 28 35
39 43 44 46 47 47 46 45 45 44 44 45 47 46 45 44 43 42 40 39 39 37 37 40 40 42 44 43 46 49 50 49 48 47 49 46 42 42 41 38 36 36 34
49 52 53 51 52 54 52 51 51 51 49 49 47 46 51 49 48 46 46 44 41 38 39 42 42 43 47 49 52 53 55 55 58 55 54 55 52 48 48 47 44 42 42
63 64 63 61 53 58 57 55 55 55 54 52 50 51 49 51 51 51 53 51 45 41 42 44 45 46 49 52 54 56 57 57 59 60 60 63 61 59 56 55 53 52 49
62 61 66 68 62 55 57 57 57 58 58 56 52 53 56 53 51 53 56 56 52 52 50 49 50 50 51 54 55 55 56 61 62 63 64 66 68 67 66 66 60 59 58
60 57 50 57 69 65 60 56 61 63 62 60 57 54 55 56 54 55 56 58 56 58 60 59 59 55 55 55 58 62 62 62 66 68 70 70 71 75 70 74 72 70 68
61 60 57 58 57 64 69 60 57 66 63 62 61 55 51 52 53 55 59 59 59 60 60 62 65 64 64 64 65 73 73 68 70 69 71 69 70 74 75 78 79 78 77
62 60 54 52 56 56 60 60 53 49 57 55 55 54 53 52 52 48 50 52 57 61 61 62 64 67 74 71 74 71 60 57 66 64 61 56 53 54 57 59 67 73 80
49 55 51 48 47 46 47 47 47 42 46 50 52 51 50 47 43 40 40 41 44 48 51 55 57 64 69 69 75 73 28 34 41 52 57 55 57 60 62 62 62 66 64
34 35 39 37 37 39 39 38 39 34 31 26 25 29 34 37 36 38 39 39 41 44 51 52 54 59 60 63 68 69 75 76 51 48 47 53 63 70 77 74 71 70 67
16 15 14 15 21 24 26 28 24 25 21 25 28 27 27 27 27 28 31 34 36 37 41 45 50 56 58 63 64 72 72 71 74 77 65 58 68 80 82 82 81 77 75
11 14 13 10 4 5 11 17 19 19 20 23 26 28 26 27 28 28 31 34 38 38 42 42 45 50 54 59 66 68 76 72 68 72 78 83 82 84 84 82 86 86 82
Wind_Direction_850mb
169 165 161 163 171 170 158 80 27 101 123 149 146 165 168 164 143 123 143 160 156 138 122 125 148 125 128 124 104 109 110 90 51 42 44 39 6 351 355 28 64 73 77
173 165 162 173 182 199 261 324 23 162 138 139 178 181 194 207 222 187 164 135 129 125 126 123 124 121 119 131 129 118 101 182 352 12 17 15 351 344 8 50 93 85 84
171 167 163 174 195 229 291 295 267 177 163 159 175 192 217 215 199 142 135 141 127 102 112 130 131 123 114 119 132 164 204 307 332 340 3 55 36 9 84 75 88 91 92
171 170 172 176 192 250 275 281 247 198 186 171 164 160 186 194 190 153 159 132 140 135 132 141 146 145 114 108 126 116 297 324 339 351 24 46 69 39 117 104 110 105 102
170 171 181 185 229 264 285 283 247 218 195 150 167 190 218 182 159 186 158 160 151 145 144 156 159 150 130 139 209 241 273 305 336 14 30 74 89 132 153 137 108 131 117
172 175 183 201 224 269 291 291 255 205 185 175 200 203 213 239 259 204 172 177 172 172 170 163 142 168 157 154 214 234 277 316 359 31 48 64 123 142 199 156 161 137 129
180 185 195 204 215 260 292 298 282 169 193 176 192 179 229 259 255 219 230 203 182 186 163 141 150 154 169 176 222 240 276 329 14 22 52 82 156 194 153 153 174 152 150
188 197 209 219 225 236 256 290 302 197 197 209 200 192 224 231 273 270 266 211 218 217 196 181 177 183 190 204 224 255 273 311 354 9 23 46 327 234 196 204 183 179 175
196 203 214 226 232 242 254 261 268 269 231 203 197 190 221 242 260 271 237 243 232 235 225 237 229 218 218 226 242 255 271 282 266 280 320 327 327 312 229 221 208 203 196
205 214 226 231 234 240 252 257 263 263 256 221 216 204 198 229 246 258 252 237 255 249 249 250 252 248 243 244 249 258 267 273 268 284 283 273 313 290 262 229 236 240 237
226 229 237 242 241 242 246 252 254 256 257 255 247 237 231 221 234 245 253 241 259 263 275 264 256 258 259 259 259 264 266 262 267 268 266 283 301 310 245 261 272 257 255
255 253 252 251 251 248 250 255 251 249 251 251 252 252 252 246 247 254 258 266 250 249 262 274 262 257 259 263 269 268 266 263 271 270 272 279 284 287 260 271 283 281 270
278 272 267 260 255 253 255 258 255 250 247 248 249 253 254 257 260 260 262 264 263 261 251 256 262 267 261 263 266 268 269 269 272 274 272 276 276 274 267 249 267 273 282
286 284 282 270 261 259 261 259 257 253 252 251 251 251 253 255 258 259 262 263 261 260 256 251 258 263 264 266 264 268 269 268 272 275 276 273 272 270 267 259 246 261 270
300 298 291 284 275 268 261 264 261 258 256 258 256 253 252 254 256 258 260 259 260 263 263 262 264 266 268 268 270 268 268 270 271 274 276 274 271 268 262 262 257 246 254
311 306 299 290 284 274 268 263 265 264 261 260 259 258 257 256 256 257 259 261 262 263 266 268 269 270 270 269 270 272 274 273 273 272 274 275 271 267 260 257 258 253 242
301 302 300 297 282 274 270 267 263 265 263 259 263 263 261 260 259 259 260 261 264 265 267 267 266 268 269 271 274 276 276 278 276 274 275 274 272 266 263 257 255 255 252
292 292 286 286 286 271 268 268 267 266 267 264 258 261 263 262 261 262 262 262 265 265 266 267 270 271 273 273 275 276 279 279 276 275 276 274 274 270 267 261 258 255 253
293 292 276 277 277 277 269 263 264 265 266 267 264 258 260 262 262 260 264 267 266 266 265 265 266 269 271 275 278 279 277 280 280 278 274 273 274 272 270 268 261 258 254
295 295 289 273 272 269 269 264 256 257 260 263 264 264 263 265 265 263 263 266 266 267 267 268 269 270 273 273 273 275 278 279 283 283 279 278 275 275 272 270 268 261 257
293 288 284 281 274 270 262 261 260 258 259 261 265 268 268 268 266 265 267 268 270 270 271 269 270 273 274 276 274 274 278 280 280 282 282 280 279 278 276 271 269 266 264
292 291 283 275 268 265 254 256 260 262 261 266 272 272 271 270 269 269 270 271 270 272 272 271 274 276 276 274 278 276 273 277 276 280 288 284 280 279 276 277 272 269 267
299 290 285 274 270 260 259 257 258 256 259 259 263 266 270 275 278 274 273 274 273 273 276 276 272 272 275 277 278 272 266 266 274 277 279 278 279 277 275 273 273 275 273
313 302 291 277 265 256 252 246 250 252 256 261 268 273 277 276 276 273 273 275 274 273 275 276 277 277 280 279 281 278 277 278 279 285 274 276 274 276 281 278 275 274 275
347 340 321 283 257 248 239 234 236 241 249 257 261 270 276 279 284 285 284 288 287 286 286 287 291 289 287 284 282 282 282 283 281 270 278 277 279 283 280 278 280 279 273
69 70 70 71 107 199 225 228 225 230 239 250 257 266 270 274 277 279 282 282 283 284 286 287 285 281 285 287 285 280 279 272 274 276 276 278 280 283 283 278 280 279 276